Lid_Strength_Index
4 4 4 3 4 4 6 8 10 5 6 10 12 13 11 11 11 10 9 10 10 10 11 13 12 12 10 9 10 11 11 14 15 13 12 11 13 14 14 16 17 15 15 14
4 4 3 4 4 4 5 8 8 4 6 12 13 11 9 10 10 10 10 10 9 9 11 13 12 11 8 9 10 11 11 15 16 14 13 12 13 13 14 15 15 16 15 14
4 4 3 4 4 4 6 7 10 7 8 10 11 11 9 10 7 7 8 9 9 11 11 12 11 11 9 8 9 5 8 15 14 15 13 13 13 12 13 14 16 14 14 14
3 3 3 3 3 4 6 7 9 8 11 10 10 10 9 9 10 8 9 9 9 10 12 11 11 11 11 9 7 11 10 12 14 13 12 11 11 11 11 13 12 13 12 13
3 3 3 3 3 3 7 9 8 8 9 8 10 11 10 9 9 9 9 10 8 9 11 10 10 12 12 12 11 13 12 13 11 13 10 9 11 10 11 11 10 12 12 13
3 3 2 2 2 3 6 3 5 6 9 9 11 10 9 9 8 7 7 7 9 9 8 8 8 9 10 11 11 13 13 11 13 14 11 11 13 11 11 11 10 11 13 11
2 2 2 2 2 2 3 3 5 9 11 10 10 9 8 8 8 9 7 6 9 8 6 7 9 9 11 10 14 12 12 13 14 14 14 17 11 9 8 10 9 9 10 9
2 2 2 2 1 1 3 5 4 6 10 9 9 8 8 8 8 8 7 6 7 6 9 10 12 11 12 13 12 13 13 13 13 13 14 13 10 9 10 11 11 8 9 9
1 1 2 2 1 1 2 5 3 4 8 10 7 8 8 10 10 10 7 6 6 8 11 11 14 13 12 14 11 9 11 12 11 14 15 16 11 8 6 7 13 8 8 8
1 0 1 1 1 1 3 5 2 4 8 6 7 9 9 8 9 10 9 8 9 9 12 12 13 12 10 14 14 14 12 12 13 14 15 12 8 7 7 12 12 6 7 7
1 1 1 1 1 0 2 5 3 4 6 5 5 5 8 8 8 11 10 9 8 9 12 12 12 12 12 13 13 13 13 13 15 14 15 15 7 7 11 8 7 6 6 6
1 1 1 2 1 1 1 4 3 2 5 5 3 4 6 6 5 7 8 10 10 9 10 10 11 11 11 12 14 11 13 11 12 12 12 9 8 8 6 6 7 6 6 5
1 1 1 2 1 1 1 5 5 3 5 5 5 7 5 5 4 4 9 8 8 9 8 10 10 12 10 13 12 12 10 9 11 11 9 8 7 7 6 5 5 5 5 5
1 1 1 1 1 1 1 3 4 4 5 8 7 2 5 4 4 4 4 6 6 8 9 10 10 11 8 12 10 11 9 9 10 10 9 9 9 8 5 5 4 5 5 5
0 0 1 1 1 1 2 2 2 3 4 8 7 4 4 4 5 4 5 5 7 8 9 10 10 9 9 10 9 10 9 9 10 11 8 10 10 9 5 5 6 6 7 8
-0 0 0 0 0 1 3 6 4 2 2 6 10 5 5 4 5 5 6 5 6 7 8 9 9 9 9 11 12 8 7 9 8 8 8 9 7 7 7 8 8 7 7 7
0 0 0 0 1 2 5 5 3 2 1 6 9 9 5 4 5 7 6 5 6 6 8 9 10 9 8 10 12 8 7 7 7 7 7 7 7 8 7 7 6 5 4 4
1 1 0 1 1 2 5 3 2 1 3 5 10 10 8 6 8 8 7 7 6 7 8 8 9 9 9 12 9 8 7 6 6 6 6 7 6 5 5 4 4 5 5 4
1 0 0 2 3 5 5 0 1 1 3 8 9 11 12 7 8 8 8 6 9 6 9 8 8 11 11 9 8 7 7 6 7 6 5 5 5 5 5 5 5 5 5 4
0 1 4 6 4 1 -0 2 5 5 5 6 9 7 10 8 9 8 8 9 10 10 9 8 10 11 8 7 7 7 6 6 5 6 7 6 6 6 5 5 4 4 5 4
3 4 5 2 -1 2 5 8 9 8 9 7 8 8 9 6 9 8 8 10 9 12 10 10 11 12 9 7 7 7 6 5 5 5 5 6 6 6 6 5 4 4 4 4
3 3 1 2 5 7 9 10 9 10 11 8 9 8 7 7 6 8 8 10 10 12 8 11 14 10 7 6 6 6 5 5 5 4 5 5 4 4 4 4 4 4 4 4
2 4 6 7 8 12 12 14 12 12 9 8 8 9 7 7 7 9 9 11 12 8 12 13 11 8 7 7 6 6 5 4 4 4 4 4 4 3 4 4 4 4 4 4
6 8 13 10 11 11 10 10 10 7 7 7 7 8 9 8 10 9 11 10 10 13 15 14 10 8 7 6 6 5 6 5 4 4 4 4 4 4 4 4 4 4 4 4
7 7 12 11 8 7 7 6 7 6 6 7 8 8 8 10 10 10 10 12 14 13 14 11 8 8 7 7 6 6 5 5 5 4 4 4 4 4 4 4 4 4 4 4
6 7 9 8 9 9 8 8 8 6 6 6 7 9 10 11 10 12 13 12 14 12 10 8 7 7 6 6 6 5 5 5 5 5 4 4 4 4 4 4 4 4 4 4
7 9 6 7 8 8 8 7 7 5 7 10 9 11 11 9 11 13 11 12 11 8 7 7 7 6 6 5 5 4 5 5 5 5 4 4 3 4 4 5 4 4 4 4